owner,sensor,date,latitude,longitude,vertical_datum,mass_concentration_of_oxygen_in_sea_water,qcFlag 
SCCF RECON,ioos:station:SCCF:13:1,2019-08-01T04:00:00Z,26.5255,-82.0032,2.22,5.1,11111222 
SCCF RECON,ioos:station:SCCF:13:1,2019-08-01T05:00:00Z,26.5255,-82.0032,2.27,4.79,11111222 
SCCF RECON,ioos:station:SCCF:13:1,2019-08-01T06:00:00Z,26.5255,-82.0032,2.29,4.54,11111222 
SCCF RECON,ioos:station:SCCF:13:1,2019-08-01T07:00:00Z,26.5255,-82.0032,2.332,4.83,11111222 
SCCF RECON,ioos:station:SCCF:13:1,2019-08-01T08:00:00Z,26.5255,-82.0032,2.376,4.69,11111222 
SCCF RECON,ioos:station:SCCF:13:1,2019-08-01T09:00:00Z,26.5255,-82.0032,2.354,4.78,11111222 
SCCF RECON,ioos:station:SCCF:13:1,2019-08-01T10:00:00Z,26.5255,-82.0032,2.28,4.61,11111222 
SCCF RECON,ioos:station:SCCF:13:1,2019-08-01T11:00:00Z,26.5255,-82.0032,2.17,4.27,11111222 
SCCF RECON,ioos:station:SCCF:13:1,2019-08-01T12:00:00Z,26.5255,-82.0032,2.11,4.58,11111222 
SCCF RECON,ioos:station:SCCF:13:1,2019-08-01T13:00:00Z,26.5255,-82.0032,2.17,4.79,11111222 
SCCF RECON,ioos:station:SCCF:13:1,2019-08-01T14:00:00Z,26.5255,-82.0032,2.38,3.96,11111222 
SCCF RECON,ioos:station:SCCF:13:1,2019-08-01T15:00:00Z,26.5255,-82.0032,2.508,4.23,11111222 
SCCF RECON,ioos:station:SCCF:13:1,2019-08-01T16:00:00Z,26.5255,-82.0032,2.61,4.89,11111222 
SCCF RECON,ioos:station:SCCF:13:1,2019-08-01T17:00:00Z,26.5255,-82.0032,2.67,5.1,11111222 
SCCF RECON,ioos:station:SCCF:13:1,2019-08-01T18:00:00Z,26.5255,-82.0032,2.71,5.51,11111222 
SCCF RECON,ioos:station:SCCF:13:1,2019-08-01T19:00:00Z,26.5255,-82.0032,2.701,5.78,11111222 
SCCF RECON,ioos:station:SCCF:13:1,2019-08-01T20:00:00Z,26.5255,-82.0032,2.72,5.64,11111222 
SCCF RECON,ioos:station:SCCF:13:1,2019-08-01T21:00:00Z,26.5255,-82.0032,2.46,5.45,11111222 
SCCF RECON,ioos:station:SCCF:13:1,2019-08-01T22:00:00Z,26.5255,-82.0032,2.3,5.54,11111222 
SCCF RECON,ioos:station:SCCF:13:1,2019-08-01T23:00:00Z,26.5255,-82.0032,2.2,5.72,11111222 
SCCF RECON,ioos:station:SCCF:13:1,2019-08-02T04:00:00Z,26.5255,-82.0032,2.16,5.18,11111222 
SCCF RECON,ioos:station:SCCF:13:1,2019-08-02T05:00:00Z,26.5255,-82.0032,2.28,4.82,11111222 
SCCF RECON,ioos:station:SCCF:13:1,2019-08-02T06:00:00Z,26.5255,-82.0032,2.36,4.75,11111222 
SCCF RECON,ioos:station:SCCF:13:1,2019-08-02T07:00:00Z,26.5255,-82.0032,2.43,4.8,11111222 
SCCF RECON,ioos:station:SCCF:13:1,2019-08-02T08:00:00Z,26.5255,-82.0032,2.46,4.76,11111222 
SCCF RECON,ioos:station:SCCF:13:1,2019-08-02T09:00:00Z,26.5255,-82.0032,2.427,4.77,11111222 
SCCF RECON,ioos:station:SCCF:13:1,2019-08-02T10:00:00Z,26.5255,-82.0032,2.341,4.65,11111222 
SCCF RECON,ioos:station:SCCF:13:1,2019-08-02T11:00:00Z,26.5255,-82.0032,2.29,4.41,11111222 
SCCF RECON,ioos:station:SCCF:13:1,2019-08-02T12:00:00Z,26.5255,-82.0032,2.248,4.26,11111222 
SCCF RECON,ioos:station:SCCF:13:1,2019-08-02T13:00:00Z,26.5255,-82.0032,2.27,4.13,11111222 
SCCF RECON,ioos:station:SCCF:13:1,2019-08-02T14:00:00Z,26.5255,-82.0032,2.365,3.7,11111222 
SCCF RECON,ioos:station:SCCF:13:1,2019-08-02T15:00:00Z,26.5255,-82.0032,2.53,4.57,11111222 
SCCF RECON,ioos:station:SCCF:13:1,2019-08-02T16:00:00Z,26.5255,-82.0032,2.653,4.68,11111222 
SCCF RECON,ioos:station:SCCF:13:1,2019-08-02T17:00:00Z,26.5255,-82.0032,2.73,4.88,11111222 
SCCF RECON,ioos:station:SCCF:13:1,2019-08-02T18:00:00Z,26.5255,-82.0032,2.78,5.13,11111222 
SCCF RECON,ioos:station:SCCF:13:1,2019-08-02T19:00:00Z,26.5255,-82.0032,2.807,5.08,11111222 
SCCF RECON,ioos:station:SCCF:13:1,2019-08-02T20:00:00Z,26.5255,-82.0032,2.81,5.17,11111222 
SCCF RECON,ioos:station:SCCF:13:1,2019-08-02T21:00:00Z,26.5255,-82.0032,2.66,5.08,11111222 
SCCF RECON,ioos:station:SCCF:13:1,2019-08-02T22:00:00Z,26.5255,-82.0032,2.536,4.97,11111222 
SCCF RECON,ioos:station:SCCF:13:1,2019-08-02T23:00:00Z,26.5255,-82.0032,2.42,4.9,11111222 
SCCF RECON,ioos:station:SCCF:13:1,2019-08-03T04:00:00Z,26.5255,-82.0032,2.26,4.89,11111222 
SCCF RECON,ioos:station:SCCF:13:1,2019-08-03T05:00:00Z,26.5255,-82.0032,2.38,4.83,11111222 
SCCF RECON,ioos:station:SCCF:13:1,2019-08-03T06:00:00Z,26.5255,-82.0032,2.45,4.24,11111222 
SCCF RECON,ioos:station:SCCF:13:1,2019-08-03T07:00:00Z,26.5255,-82.0032,2.52,4.47,11111222 
SCCF RECON,ioos:station:SCCF:13:1,2019-08-03T08:00:00Z,26.5255,-82.0032,2.58,4.2,11111222 
SCCF RECON,ioos:station:SCCF:13:1,2019-08-03T09:00:00Z,26.5255,-82.0032,2.59,4.26,11111222 
SCCF RECON,ioos:station:SCCF:13:1,2019-08-03T10:00:00Z,26.5255,-82.0032,2.53,4.27,11111222 
SCCF RECON,ioos:station:SCCF:13:1,2019-08-03T11:00:00Z,26.5255,-82.0032,2.467,4.14,11111222 
SCCF RECON,ioos:station:SCCF:13:1,2019-08-03T12:00:00Z,26.5255,-82.0032,2.41,3.95,11111222 
SCCF RECON,ioos:station:SCCF:13:1,2019-08-03T13:00:00Z,26.5255,-82.0032,2.34,4.52,11111222 
SCCF RECON,ioos:station:SCCF:13:1,2019-08-03T14:00:00Z,26.5255,-82.0032,2.32,4.67,11111222 
SCCF RECON,ioos:station:SCCF:13:1,2019-08-03T15:00:00Z,26.5255,-82.0032,2.4,4.67,11111222 
SCCF RECON,ioos:station:SCCF:13:1,2019-08-03T16:00:00Z,26.5255,-82.0032,2.558,4.24,11111222 
SCCF RECON,ioos:station:SCCF:13:1,2019-08-03T17:00:00Z,26.5255,-82.0032,2.654,4.58,11111222 
SCCF RECON,ioos:station:SCCF:13:1,2019-08-03T18:00:00Z,26.5255,-82.0032,2.72,5.11,11111222 
SCCF RECON,ioos:station:SCCF:13:1,2019-08-03T19:00:00Z,26.5255,-82.0032,2.77,5.28,11111222 
SCCF RECON,ioos:station:SCCF:13:1,2019-08-03T20:00:00Z,26.5255,-82.0032,2.789,5.24,11111222 
SCCF RECON,ioos:station:SCCF:13:1,2019-08-03T21:00:00Z,26.5255,-82.0032,2.74,5.27,11111222 
SCCF RECON,ioos:station:SCCF:13:1,2019-08-03T22:00:00Z,26.5255,-82.0032,2.62,5.25,11111222 
SCCF RECON,ioos:station:SCCF:13:1,2019-08-03T23:00:00Z,26.5255,-82.0032,2.48,5.29,11111222 
SCCF RECON,ioos:station:SCCF:13:1,2019-08-04T04:00:00Z,26.5255,-82.0032,2.172,5.23,11111222 
SCCF RECON,ioos:station:SCCF:13:1,2019-08-04T05:00:00Z,26.5255,-82.0032,2.34,5.18,11111222 
SCCF RECON,ioos:station:SCCF:13:1,2019-08-04T06:00:00Z,26.5255,-82.0032,2.44,4.77,11111222 
SCCF RECON,ioos:station:SCCF:13:1,2019-08-04T07:00:00Z,26.5255,-82.0032,2.51,5.1,11111222 
SCCF RECON,ioos:station:SCCF:13:1,2019-08-04T08:00:00Z,26.5255,-82.0032,2.592,4.87,11111222 
SCCF RECON,ioos:station:SCCF:13:1,2019-08-04T09:00:00Z,26.5255,-82.0032,2.62,4.74,11111222 
SCCF RECON,ioos:station:SCCF:13:1,2019-08-04T10:00:00Z,26.5255,-82.0032,2.61,4.92,11111222 
SCCF RECON,ioos:station:SCCF:13:1,2019-08-04T11:00:00Z,26.5255,-82.0032,2.545,4.53,11111222 
SCCF RECON,ioos:station:SCCF:13:1,2019-08-04T12:00:00Z,26.5255,-82.0032,2.45,4.72,11111222 
SCCF RECON,ioos:station:SCCF:13:1,2019-08-04T13:00:00Z,26.5255,-82.0032,2.36,4.51,11111222 
SCCF RECON,ioos:station:SCCF:13:1,2019-08-04T14:00:00Z,26.5255,-82.0032,2.301,4.72,11111222 
SCCF RECON,ioos:station:SCCF:13:1,2019-08-04T15:00:00Z,26.5255,-82.0032,2.264,4.86,11111222 
SCCF RECON,ioos:station:SCCF:13:1,2019-08-04T16:00:00Z,26.5255,-82.0032,2.34,5.08,11111222 
SCCF RECON,ioos:station:SCCF:13:1,2019-08-04T17:00:00Z,26.5255,-82.0032,2.479,4.86,11111222 
SCCF RECON,ioos:station:SCCF:13:1,2019-08-04T18:00:00Z,26.5255,-82.0032,2.57,4.91,11111222 
SCCF RECON,ioos:station:SCCF:13:1,2019-08-04T19:00:00Z,26.5255,-82.0032,2.6,4.68,11111222 
SCCF RECON,ioos:station:SCCF:13:1,2019-08-04T20:00:00Z,26.5255,-82.0032,2.66,5.46,11111222 
SCCF RECON,ioos:station:SCCF:13:1,2019-08-04T21:00:00Z,26.5255,-82.0032,2.67,5.68,11111222 
SCCF RECON,ioos:station:SCCF:13:1,2019-08-04T22:00:00Z,26.5255,-82.0032,2.63,5.87,11111222 
SCCF RECON,ioos:station:SCCF:13:1,2019-08-04T23:00:00Z,26.5255,-82.0032,2.526,5.5,11111222 
SCCF RECON,ioos:station:SCCF:13:1,2019-08-05T04:00:00Z,26.5255,-82.0032,2.118,5.47,11111222 
SCCF RECON,ioos:station:SCCF:13:1,2019-08-05T05:00:00Z,26.5255,-82.0032,2.23,5.3,11111222 
SCCF RECON,ioos:station:SCCF:13:1,2019-08-05T06:00:00Z,26.5255,-82.0032,2.395,5.0,11111222 
SCCF RECON,ioos:station:SCCF:13:1,2019-08-05T07:00:00Z,26.5255,-82.0032,2.47,5.04,11111222 
SCCF RECON,ioos:station:SCCF:13:1,2019-08-05T08:00:00Z,26.5255,-82.0032,2.55,4.91,11111222 
SCCF RECON,ioos:station:SCCF:13:1,2019-08-05T09:00:00Z,26.5255,-82.0032,2.623,4.96,11111222 
SCCF RECON,ioos:station:SCCF:13:1,2019-08-05T10:00:00Z,26.5255,-82.0032,2.679,5.13,11111222 
SCCF RECON,ioos:station:SCCF:13:1,2019-08-05T11:00:00Z,26.5255,-82.0032,2.565,5.06,11111222 
SCCF RECON,ioos:station:SCCF:13:1,2019-08-05T12:00:00Z,26.5255,-82.0032,2.489,4.85,11111222 
SCCF RECON,ioos:station:SCCF:13:1,2019-08-05T13:00:00Z,26.5255,-82.0032,2.39,4.52,11111222 
SCCF RECON,ioos:station:SCCF:13:1,2019-08-05T14:00:00Z,26.5255,-82.0032,2.33,4.76,11111222 
SCCF RECON,ioos:station:SCCF:13:1,2019-08-05T15:00:00Z,26.5255,-82.0032,2.27,5.13,11111222 
SCCF RECON,ioos:station:SCCF:13:1,2019-08-05T16:00:00Z,26.5255,-82.0032,2.22,5.04,11111222 
SCCF RECON,ioos:station:SCCF:13:1,2019-08-05T17:00:00Z,26.5255,-82.0032,2.29,5.22,11111222 
SCCF RECON,ioos:station:SCCF:13:1,2019-08-05T18:00:00Z,26.5255,-82.0032,2.39,5.05,11111222 
SCCF RECON,ioos:station:SCCF:13:1,2019-08-05T19:00:00Z,26.5255,-82.0032,2.49,4.65,11111222 
SCCF RECON,ioos:station:SCCF:13:1,2019-08-05T20:00:00Z,26.5255,-82.0032,2.53,5.38,11111222 
SCCF RECON,ioos:station:SCCF:13:1,2019-08-05T21:00:00Z,26.5255,-82.0032,2.55,5.29,11111222 
SCCF RECON,ioos:station:SCCF:13:1,2019-08-05T22:00:00Z,26.5255,-82.0032,2.56,5.51,11111222 
SCCF RECON,ioos:station:SCCF:13:1,2019-08-05T23:00:00Z,26.5255,-82.0032,2.55,5.52,11111222 
SCCF RECON,ioos:station:SCCF:13:1,2019-08-06T04:00:00Z,26.5255,-82.0032,2.14,5.24,11111222 
SCCF RECON,ioos:station:SCCF:13:1,2019-08-06T05:00:00Z,26.5255,-82.0032,2.151,5.2,11111222 
SCCF RECON,ioos:station:SCCF:13:1,2019-08-06T06:00:00Z,26.5255,-82.0032,2.31,5.16,11111222 
SCCF RECON,ioos:station:SCCF:13:1,2019-08-06T07:00:00Z,26.5255,-82.0032,2.43,4.78,11111222 
SCCF RECON,ioos:station:SCCF:13:1,2019-08-06T08:00:00Z,26.5255,-82.0032,2.51,4.66,11111222 
SCCF RECON,ioos:station:SCCF:13:1,2019-08-06T09:00:00Z,26.5255,-82.0032,2.57,4.81,11111222 
SCCF RECON,ioos:station:SCCF:13:1,2019-08-06T10:00:00Z,26.5255,-82.0032,2.61,4.93,11111222 
SCCF RECON,ioos:station:SCCF:13:1,2019-08-06T11:00:00Z,26.5255,-82.0032,2.61,4.91,11111222 
SCCF RECON,ioos:station:SCCF:13:1,2019-08-06T12:00:00Z,26.5255,-82.0032,2.55,4.83,11111222 
SCCF RECON,ioos:station:SCCF:13:1,2019-08-06T13:00:00Z,26.5255,-82.0032,2.46,4.69,11111222 
SCCF RECON,ioos:station:SCCF:13:1,2019-08-06T14:00:00Z,26.5255,-82.0032,2.361,4.45,11111222 
SCCF RECON,ioos:station:SCCF:13:1,2019-08-06T15:00:00Z,26.5255,-82.0032,2.278,4.75,11111222 
SCCF RECON,ioos:station:SCCF:13:1,2019-08-06T16:00:00Z,26.5255,-82.0032,2.207,5.15,11111222 
SCCF RECON,ioos:station:SCCF:13:1,2019-08-06T17:00:00Z,26.5255,-82.0032,2.166,5.31,11111222 
SCCF RECON,ioos:station:SCCF:13:1,2019-08-06T18:00:00Z,26.5255,-82.0032,2.19,5.48,11111222 
SCCF RECON,ioos:station:SCCF:13:1,2019-08-06T19:00:00Z,26.5255,-82.0032,2.291,5.53,11111222 
SCCF RECON,ioos:station:SCCF:13:1,2019-08-06T20:00:00Z,26.5255,-82.0032,2.388,5.92,11111222 
SCCF RECON,ioos:station:SCCF:13:1,2019-08-06T21:00:00Z,26.5255,-82.0032,2.43,6.7,11111222 
SCCF RECON,ioos:station:SCCF:13:1,2019-08-06T22:00:00Z,26.5255,-82.0032,2.455,6.21,11111222 
SCCF RECON,ioos:station:SCCF:13:1,2019-08-06T23:00:00Z,26.5255,-82.0032,2.5,6.05,11111222 
SCCF RECON,ioos:station:SCCF:13:1,2019-08-07T04:00:00Z,26.5255,-82.0032,2.162,5.76,11111222 
SCCF RECON,ioos:station:SCCF:13:1,2019-08-07T05:00:00Z,26.5255,-82.0032,2.14,5.9,11111222 
SCCF RECON,ioos:station:SCCF:13:1,2019-08-07T06:00:00Z,26.5255,-82.0032,2.23,5.79,11111222 
SCCF RECON,ioos:station:SCCF:13:1,2019-08-07T07:00:00Z,26.5255,-82.0032,2.35,5.53,11111222 
SCCF RECON,ioos:station:SCCF:13:1,2019-08-07T08:00:00Z,26.5255,-82.0032,2.44,5.17,11111222 
SCCF RECON,ioos:station:SCCF:13:1,2019-08-07T09:00:00Z,26.5255,-82.0032,2.504,5.07,11111222 
SCCF RECON,ioos:station:SCCF:13:1,2019-08-07T10:00:00Z,26.5255,-82.0032,2.56,5.18,11111222 
SCCF RECON,ioos:station:SCCF:13:1,2019-08-07T11:00:00Z,26.5255,-82.0032,2.592,5.08,11111222 
SCCF RECON,ioos:station:SCCF:13:1,2019-08-07T12:00:00Z,26.5255,-82.0032,2.6,5.06,11111222 
SCCF RECON,ioos:station:SCCF:13:1,2019-08-07T13:00:00Z,26.5255,-82.0032,2.548,4.97,11111222 
SCCF RECON,ioos:station:SCCF:13:1,2019-08-07T14:00:00Z,26.5255,-82.0032,2.441,5.19,11111222 
SCCF RECON,ioos:station:SCCF:13:1,2019-08-07T15:00:00Z,26.5255,-82.0032,2.33,4.95,11111222 
SCCF RECON,ioos:station:SCCF:13:1,2019-08-07T16:00:00Z,26.5255,-82.0032,2.25,5.3,11111222 
SCCF RECON,ioos:station:SCCF:13:1,2019-08-07T17:00:00Z,26.5255,-82.0032,2.17,5.66,11111222 
SCCF RECON,ioos:station:SCCF:13:1,2019-08-07T18:00:00Z,26.5255,-82.0032,2.11,5.8,11111222 
SCCF RECON,ioos:station:SCCF:13:1,2019-08-07T19:00:00Z,26.5255,-82.0032,2.11,5.8,11111222 
SCCF RECON,ioos:station:SCCF:13:1,2019-08-07T20:00:00Z,26.5255,-82.0032,2.19,5.73,11111222 
SCCF RECON,ioos:station:SCCF:13:1,2019-08-07T21:00:00Z,26.5255,-82.0032,2.305,5.61,11111222 
SCCF RECON,ioos:station:SCCF:13:1,2019-08-07T22:00:00Z,26.5255,-82.0032,2.35,5.85,11111222 
SCCF RECON,ioos:station:SCCF:13:1,2019-08-07T23:00:00Z,26.5255,-82.0032,2.37,5.57,11111222 
SCCF RECON,ioos:station:SCCF:13:1,2019-08-08T04:00:00Z,26.5255,-82.0032,2.24,5.27,11111222 
SCCF RECON,ioos:station:SCCF:13:1,2019-08-08T05:00:00Z,26.5255,-82.0032,2.22,5.28,11111222 
SCCF RECON,ioos:station:SCCF:13:1,2019-08-08T06:00:00Z,26.5255,-82.0032,2.24,5.5,11111222 
SCCF RECON,ioos:station:SCCF:13:1,2019-08-08T07:00:00Z,26.5255,-82.0032,2.29,5.26,11111222 
SCCF RECON,ioos:station:SCCF:13:1,2019-08-08T08:00:00Z,26.5255,-82.0032,2.36,4.75,11111222 
SCCF RECON,ioos:station:SCCF:13:1,2019-08-08T09:00:00Z,26.5255,-82.0032,2.43,4.85,11111222 
SCCF RECON,ioos:station:SCCF:13:1,2019-08-08T10:00:00Z,26.5255,-82.0032,2.487,5.28,11111222 
SCCF RECON,ioos:station:SCCF:13:1,2019-08-08T11:00:00Z,26.5255,-82.0032,2.54,5.05,11111222 
SCCF RECON,ioos:station:SCCF:13:1,2019-08-08T12:00:00Z,26.5255,-82.0032,2.566,5.0,11111222 
SCCF RECON,ioos:station:SCCF:13:1,2019-08-08T13:00:00Z,26.5255,-82.0032,2.569,5.0,11111222 
SCCF RECON,ioos:station:SCCF:13:1,2019-08-08T14:00:00Z,26.5255,-82.0032,2.51,4.81,11111222 
SCCF RECON,ioos:station:SCCF:13:1,2019-08-08T15:00:00Z,26.5255,-82.0032,2.39,5.12,11111222 
SCCF RECON,ioos:station:SCCF:13:1,2019-08-08T16:00:00Z,26.5255,-82.0032,2.287,5.05,11111222 
SCCF RECON,ioos:station:SCCF:13:1,2019-08-08T17:00:00Z,26.5255,-82.0032,2.2,5.68,11111222 
SCCF RECON,ioos:station:SCCF:13:1,2019-08-08T18:00:00Z,26.5255,-82.0032,2.12,5.76,11111222 
SCCF RECON,ioos:station:SCCF:13:1,2019-08-08T19:00:00Z,26.5255,-82.0032,2.06,6.03,11111222 
SCCF RECON,ioos:station:SCCF:13:1,2019-08-08T20:00:00Z,26.5255,-82.0032,2.04,5.85,11111222 
SCCF RECON,ioos:station:SCCF:13:1,2019-08-08T21:00:00Z,26.5255,-82.0032,2.098,5.9,11111222 
SCCF RECON,ioos:station:SCCF:13:1,2019-08-08T22:00:00Z,26.5255,-82.0032,2.19,6.06,11111222 
SCCF RECON,ioos:station:SCCF:13:1,2019-08-08T23:00:00Z,26.5255,-82.0032,2.246,5.77,11111222 
SCCF RECON,ioos:station:SCCF:13:1,2019-08-09T04:00:00Z,26.5255,-82.0032,2.31,5.99,11111222 
SCCF RECON,ioos:station:SCCF:13:1,2019-08-09T05:00:00Z,26.5255,-82.0032,2.28,5.96,11111222 
SCCF RECON,ioos:station:SCCF:13:1,2019-08-09T06:00:00Z,26.5255,-82.0032,2.26,5.21,11111222 
SCCF RECON,ioos:station:SCCF:13:1,2019-08-09T07:00:00Z,26.5255,-82.0032,2.25,4.83,11111222 
SCCF RECON,ioos:station:SCCF:13:1,2019-08-09T08:00:00Z,26.5255,-82.0032,2.29,3.69,11111222 
SCCF RECON,ioos:station:SCCF:13:1,2019-08-09T09:00:00Z,26.5255,-82.0032,2.35,4.78,11111222 
SCCF RECON,ioos:station:SCCF:13:1,2019-08-09T10:00:00Z,26.5255,-82.0032,2.407,5.27,11111222 
SCCF RECON,ioos:station:SCCF:13:1,2019-08-09T11:00:00Z,26.5255,-82.0032,2.46,5.09,11111222 
SCCF RECON,ioos:station:SCCF:13:1,2019-08-09T12:00:00Z,26.5255,-82.0032,2.5,5.04,11111222 
SCCF RECON,ioos:station:SCCF:13:1,2019-08-09T13:00:00Z,26.5255,-82.0032,2.535,5.21,11111222 
SCCF RECON,ioos:station:SCCF:13:1,2019-08-09T14:00:00Z,26.5255,-82.0032,2.56,5.0,11111222 
SCCF RECON,ioos:station:SCCF:13:1,2019-08-09T15:00:00Z,26.5255,-82.0032,2.53,4.49,11111222 
SCCF RECON,ioos:station:SCCF:13:1,2019-08-09T16:00:00Z,26.5255,-82.0032,2.44,5.08,11111222 
SCCF RECON,ioos:station:SCCF:13:1,2019-08-09T17:00:00Z,26.5255,-82.0032,2.3,5.41,11111222 
SCCF RECON,ioos:station:SCCF:13:1,2019-08-09T18:00:00Z,26.5255,-82.0032,2.2,5.78,11111222 
SCCF RECON,ioos:station:SCCF:13:1,2019-08-09T19:00:00Z,26.5255,-82.0032,2.112,5.41,11111222 
SCCF RECON,ioos:station:SCCF:13:1,2019-08-09T20:00:00Z,26.5255,-82.0032,2.036,5.44,11111222 
SCCF RECON,ioos:station:SCCF:13:1,2019-08-09T21:00:00Z,26.5255,-82.0032,1.992,5.66,11111222 
SCCF RECON,ioos:station:SCCF:13:1,2019-08-09T22:00:00Z,26.5255,-82.0032,2.029,5.56,11111222 
SCCF RECON,ioos:station:SCCF:13:1,2019-08-09T23:00:00Z,26.5255,-82.0032,2.129,5.68,11111222 
SCCF RECON,ioos:station:SCCF:13:1,2019-08-10T04:00:00Z,26.5255,-82.0032,2.35,5.12,11111222 
SCCF RECON,ioos:station:SCCF:13:1,2019-08-10T05:00:00Z,26.5255,-82.0032,2.32,4.76,11111222 
SCCF RECON,ioos:station:SCCF:13:1,2019-08-10T06:00:00Z,26.5255,-82.0032,2.3,5.04,11111222 
SCCF RECON,ioos:station:SCCF:13:1,2019-08-10T07:00:00Z,26.5255,-82.0032,2.27,4.88,11111222 
SCCF RECON,ioos:station:SCCF:13:1,2019-08-10T08:00:00Z,26.5255,-82.0032,2.25,4.77,11111222 
SCCF RECON,ioos:station:SCCF:13:1,2019-08-10T09:00:00Z,26.5255,-82.0032,2.261,4.38,11111222 
SCCF RECON,ioos:station:SCCF:13:1,2019-08-10T10:00:00Z,26.5255,-82.0032,2.33,3.57,11111222 
SCCF RECON,ioos:station:SCCF:13:1,2019-08-10T11:00:00Z,26.5255,-82.0032,2.4,4.39,11111222 
SCCF RECON,ioos:station:SCCF:13:1,2019-08-10T12:00:00Z,26.5255,-82.0032,2.47,3.9,11111222 
SCCF RECON,ioos:station:SCCF:13:1,2019-08-10T13:00:00Z,26.5255,-82.0032,2.52,4.38,11111222 
SCCF RECON,ioos:station:SCCF:13:1,2019-08-10T14:00:00Z,26.5255,-82.0032,2.56,4.53,11111222 
SCCF RECON,ioos:station:SCCF:13:1,2019-08-10T15:00:00Z,26.5255,-82.0032,2.561,4.73,11111222 
SCCF RECON,ioos:station:SCCF:13:1,2019-08-10T16:00:00Z,26.5255,-82.0032,2.49,3.9,11111222 
SCCF RECON,ioos:station:SCCF:13:1,2019-08-10T17:00:00Z,26.5255,-82.0032,2.385,4.68,11111222 
SCCF RECON,ioos:station:SCCF:13:1,2019-08-10T18:00:00Z,26.5255,-82.0032,2.27,4.82,11111222 
SCCF RECON,ioos:station:SCCF:13:1,2019-08-10T19:00:00Z,26.5255,-82.0032,2.163,5.3,11111222 
SCCF RECON,ioos:station:SCCF:13:1,2019-08-10T20:00:00Z,26.5255,-82.0032,2.078,5.1,11111222 
SCCF RECON,ioos:station:SCCF:13:1,2019-08-10T21:00:00Z,26.5255,-82.0032,2.0,5.33,11111222 
SCCF RECON,ioos:station:SCCF:13:1,2019-08-10T22:00:00Z,26.5255,-82.0032,1.95,5.11,11111222 
SCCF RECON,ioos:station:SCCF:13:1,2019-08-10T23:00:00Z,26.5255,-82.0032,1.983,5.23,11111222 
SCCF RECON,ioos:station:SCCF:13:1,2019-08-11T04:00:00Z,26.5255,-82.0032,2.348,4.59,11111222 
SCCF RECON,ioos:station:SCCF:13:1,2019-08-11T05:00:00Z,26.5255,-82.0032,2.35,4.56,11111222 
SCCF RECON,ioos:station:SCCF:13:1,2019-08-11T06:00:00Z,26.5255,-82.0032,2.34,4.17,11111222 
SCCF RECON,ioos:station:SCCF:13:1,2019-08-11T07:00:00Z,26.5255,-82.0032,2.32,4.02,11111222 
SCCF RECON,ioos:station:SCCF:13:1,2019-08-11T08:00:00Z,26.5255,-82.0032,2.27,4.26,11111222 
SCCF RECON,ioos:station:SCCF:13:1,2019-08-11T09:00:00Z,26.5255,-82.0032,2.24,4.23,11111222 
SCCF RECON,ioos:station:SCCF:13:1,2019-08-11T10:00:00Z,26.5255,-82.0032,2.27,3.73,11111222 
SCCF RECON,ioos:station:SCCF:13:1,2019-08-11T11:00:00Z,26.5255,-82.0032,2.351,3.02,11111222 
SCCF RECON,ioos:station:SCCF:13:1,2019-08-11T12:00:00Z,26.5255,-82.0032,2.44,3.52,11111222 
SCCF RECON,ioos:station:SCCF:13:1,2019-08-11T13:00:00Z,26.5255,-82.0032,2.512,3.84,11111222 
SCCF RECON,ioos:station:SCCF:13:1,2019-08-11T14:00:00Z,26.5255,-82.0032,2.589,4.25,11111222 
SCCF RECON,ioos:station:SCCF:13:1,2019-08-11T15:00:00Z,26.5255,-82.0032,2.61,4.31,11111222 
SCCF RECON,ioos:station:SCCF:13:1,2019-08-11T16:00:00Z,26.5255,-82.0032,2.595,4.79,11111222 
SCCF RECON,ioos:station:SCCF:13:1,2019-08-11T17:00:00Z,26.5255,-82.0032,2.53,3.98,11111222 
SCCF RECON,ioos:station:SCCF:13:1,2019-08-11T18:00:00Z,26.5255,-82.0032,2.39,4.19,11111222 
SCCF RECON,ioos:station:SCCF:13:1,2019-08-11T19:00:00Z,26.5255,-82.0032,2.28,4.53,11111222 
SCCF RECON,ioos:station:SCCF:13:1,2019-08-11T20:00:00Z,26.5255,-82.0032,2.171,4.82,11111222 
SCCF RECON,ioos:station:SCCF:13:1,2019-08-11T21:00:00Z,26.5255,-82.0032,2.079,4.89,11111222 
SCCF RECON,ioos:station:SCCF:13:1,2019-08-11T22:00:00Z,26.5255,-82.0032,1.996,4.67,11111222 
SCCF RECON,ioos:station:SCCF:13:1,2019-08-11T23:00:00Z,26.5255,-82.0032,1.958,4.48,11111222 
SCCF RECON,ioos:station:SCCF:13:1,2019-08-12T04:00:00Z,26.5255,-82.0032,2.31,3.75,11111222 
SCCF RECON,ioos:station:SCCF:13:1,2019-08-12T05:00:00Z,26.5255,-82.0032,2.35,3.74,11111222 
SCCF RECON,ioos:station:SCCF:13:1,2019-08-12T06:00:00Z,26.5255,-82.0032,2.36,3.76,11111222 
SCCF RECON,ioos:station:SCCF:13:1,2019-08-12T07:00:00Z,26.5255,-82.0032,2.33,3.59,11111222 
SCCF RECON,ioos:station:SCCF:13:1,2019-08-12T08:00:00Z,26.5255,-82.0032,2.28,3.58,11111222 
SCCF RECON,ioos:station:SCCF:13:1,2019-08-12T10:00:00Z,26.5255,-82.0032,2.24,3.35,11111222 
SCCF RECON,ioos:station:SCCF:13:1,2019-08-12T11:00:00Z,26.5255,-82.0032,2.27,3.09,11111222 
SCCF RECON,ioos:station:SCCF:13:1,2019-08-12T12:00:00Z,26.5255,-82.0032,2.349,2.8,11111222 
SCCF RECON,ioos:station:SCCF:13:1,2019-08-12T13:00:00Z,26.5255,-82.0032,2.45,2.99,11111222 
SCCF RECON,ioos:station:SCCF:13:1,2019-08-12T14:00:00Z,26.5255,-82.0032,2.527,3.5,11111222 
SCCF RECON,ioos:station:SCCF:13:1,2019-08-12T15:00:00Z,26.5255,-82.0032,2.584,3.71,11111222 
SCCF RECON,ioos:station:SCCF:13:1,2019-08-12T16:00:00Z,26.5255,-82.0032,2.58,4.18,11111222 
SCCF RECON,ioos:station:SCCF:13:1,2019-08-12T17:00:00Z,26.5255,-82.0032,2.54,3.97,11111222 
SCCF RECON,ioos:station:SCCF:13:1,2019-08-12T18:00:00Z,26.5255,-82.0032,2.46,3.51,11111222 
SCCF RECON,ioos:station:SCCF:13:1,2019-08-12T19:00:00Z,26.5255,-82.0032,2.34,3.93,11111222 
SCCF RECON,ioos:station:SCCF:13:1,2019-08-12T20:00:00Z,26.5255,-82.0032,2.229,4.18,11111222 
SCCF RECON,ioos:station:SCCF:13:1,2019-08-12T21:00:00Z,26.5255,-82.0032,2.132,4.32,11111222 
SCCF RECON,ioos:station:SCCF:13:1,2019-08-12T22:00:00Z,26.5255,-82.0032,2.04,4.43,11111222 
SCCF RECON,ioos:station:SCCF:13:1,2019-08-12T23:00:00Z,26.5255,-82.0032,1.96,4.29,11111222 
SCCF RECON,ioos:station:SCCF:13:1,2019-08-13T04:00:00Z,26.5255,-82.0032,2.3,3.64,11111222 
SCCF RECON,ioos:station:SCCF:13:1,2019-08-13T05:00:00Z,26.5255,-82.0032,2.37,3.59,11111222 
SCCF RECON,ioos:station:SCCF:13:1,2019-08-13T06:00:00Z,26.5255,-82.0032,2.4,3.78,11111222 
SCCF RECON,ioos:station:SCCF:13:1,2019-08-13T07:00:00Z,26.5255,-82.0032,2.38,3.72,11111222 
SCCF RECON,ioos:station:SCCF:13:1,2019-08-13T08:00:00Z,26.5255,-82.0032,2.34,3.51,11111222 
SCCF RECON,ioos:station:SCCF:13:1,2019-08-13T09:00:00Z,26.5255,-82.0032,2.308,3.69,11111222 
SCCF RECON,ioos:station:SCCF:13:1,2019-08-13T10:00:00Z,26.5255,-82.0032,2.26,3.31,11111222 
SCCF RECON,ioos:station:SCCF:13:1,2019-08-13T11:00:00Z,26.5255,-82.0032,2.26,3.13,11111222 
SCCF RECON,ioos:station:SCCF:13:1,2019-08-13T12:00:00Z,26.5255,-82.0032,2.32,2.18,11111222 
SCCF RECON,ioos:station:SCCF:13:1,2019-08-13T13:00:00Z,26.5255,-82.0032,2.421,2.5,11111222 
SCCF RECON,ioos:station:SCCF:13:1,2019-08-13T14:00:00Z,26.5255,-82.0032,2.51,3.19,11111222 
SCCF RECON,ioos:station:SCCF:13:1,2019-08-13T16:00:00Z,26.5255,-82.0032,2.64,4.39,11111222 
SCCF RECON,ioos:station:SCCF:13:1,2019-08-13T17:00:00Z,26.5255,-82.0032,2.65,4.47,11111222 
SCCF RECON,ioos:station:SCCF:13:1,2019-08-13T18:00:00Z,26.5255,-82.0032,2.574,4.95,11111222 
SCCF RECON,ioos:station:SCCF:13:1,2019-08-13T19:00:00Z,26.5255,-82.0032,2.471,5.02,11111222 
SCCF RECON,ioos:station:SCCF:13:1,2019-08-13T20:00:00Z,26.5255,-82.0032,2.36,4.25,11111222 
SCCF RECON,ioos:station:SCCF:13:1,2019-08-13T21:00:00Z,26.5255,-82.0032,2.241,4.48,11111222 
SCCF RECON,ioos:station:SCCF:13:1,2019-08-13T22:00:00Z,26.5255,-82.0032,2.14,4.49,11111222 
SCCF RECON,ioos:station:SCCF:13:1,2019-08-13T23:00:00Z,26.5255,-82.0032,2.052,4.42,11111222 
SCCF RECON,ioos:station:SCCF:13:1,2019-08-14T04:00:00Z,26.5255,-82.0032,2.32,3.81,11111222 